Volver al catálogo

SL-12 R/B(2)

ActivoGEO
NORAD 12447·ROCKET BODY·🇷🇺 Russia

Lanzado Oct 5, 1980 desde Baikonur Cosmodrome

Loading…

TLE

ActualizadoSource: Space-Track

Época: Sep 14, 2026, 10:11 UTC

1 12447U 80081F   26257.42449782 -.00000289  00000-0  00000-0 0  9997
2 12447   5.9624 289.5203 0004445  39.1279 136.5511  0.99971074165272

Sigue SL-12 R/B(2) en tiempo real con AllMySat

Download on the App Store